Home > Weather > Rhodes > Past weeks

Flag for Greece Past Weather in Rhodes, Rhodes, Greece — Yesterday and Last 2 Weeks

Now
84 °F

Sunny.


Feels Like: 92 °F
Forecast: 76 / 83 °F
Wind: 17 mph from West

Location: Rhodes Airport

Current Time: Aug 25, 2016 at 4:28:18 PM

Latest Report: Aug 25, 2016 at 3:50 PM


Visibility: 10 mi

Pressure: 29.74 "Hg

Humidity: 74%

Dew Point: 75 °F

Location of RhodesLocation

Past Weather in Rhodes — Graph

°F

Rhodes Temperature Yesterday

Maximum temperature yesterday: 84 °F (at 1:50 PM)
Minimum temperature yesterday: 75 °F (at 3:50 AM)
Average temperature yesterday: 80 °F

High & Low Weather Summary for the Past Weeks

 TemperatureHumidityPressure
High90 °F (Aug 12, 2:50 PM)94% (Aug 11, 3:50 AM)29.86 "Hg (Aug 11, 3:50 AM)
Low75 °F (Aug 14, 4:50 AM)5% (Aug 19, 1:20 PM)29.68 "Hg (Aug 10, 2:20 PM)
Average80 °F71%29.75 "Hg
* Reported Aug 10 2:20 PM — Aug 25 2:50 PM, Rhodes, Weather by CustomWeather, © 2016

Note: Actual official high and low records may vary slightly from our data, if they occured in-between our weather recording intervals... More about our weather records

Advertising

Rhodes Weather History for the Previous 24 Hours

Scroll right to see more
 ConditionsComfort  
Time TempWeatherWind HumidityBarometerVisibility
2:50 PM
Thu, Aug 25
84 °FSunny.16 mph74%29.74 "Hg10 mi
2:20 PM84 °FPassing clouds.15 mph74%29.74 "HgN/A
1:50 PM82 °FSunny.15 mph74%29.74 "Hg10 mi
1:20 PM82 °FSunny.14 mph74%29.77 "Hg10 mi
12:50 PM82 °FSunny.15 mph74%29.77 "Hg10 mi
12:20 PM82 °FSunny.16 mph79%29.77 "Hg10 mi
11:50 AM82 °FSunny.17 mph79%29.77 "Hg10 mi
11:20 AM81 °FSunny.17 mph79%29.74 "Hg10 mi
10:50 AM81 °FSunny.16 mph79%29.74 "Hg10 mi
10:20 AM81 °FPassing clouds.16 mph74%29.74 "HgN/A
9:50 AM81 °FPassing clouds.15 mph74%29.74 "HgN/A
9:20 AM79 °FPassing clouds.14 mph84%29.74 "HgN/A
8:50 AM79 °FPassing clouds.16 mph84%29.74 "HgN/A
8:20 AM77 °FPassing clouds.17 mph83%29.71 "HgN/A
7:50 AM77 °FPassing clouds.14 mph83%29.71 "HgN/A
6:50 AM77 °FClear.10 mph74%29.71 "Hg10 mi
6:20 AM77 °FClear.10 mph74%29.71 "Hg10 mi
5:50 AM77 °FClear.10 mph74%29.71 "Hg10 mi
5:20 AM77 °FClear.15 mph74%29.71 "Hg10 mi
4:20 AM77 °FClear.12 mph74%29.71 "Hg10 mi
3:50 AM77 °FClear.12 mph74%29.71 "Hg10 mi
3:20 AM77 °FClear.7 mph74%29.71 "Hg10 mi
2:50 AM75 °FClear.10 mph83%29.71 "Hg10 mi
2:20 AM77 °FClear.12 mph79%29.71 "Hg10 mi
1:50 AM75 °FClear.12 mph89%29.80 "Hg10 mi
1:20 AM77 °FClear.9 mph79%29.74 "Hg10 mi
12:50 AM77 °FClear.9 mph79%29.74 "Hg10 mi
12:20 AM77 °FClear.13 mph79%29.74 "Hg10 mi
11:50 PM
Wed, Aug 24
77 °FClear.13 mph79%29.74 "Hg10 mi
11:20 PM79 °FClear.10 mph74%29.74 "Hg10 mi
10:50 PM79 °FClear.10 mph74%29.74 "Hg10 mi
10:20 PM79 °FClear.12 mph79%29.74 "Hg10 mi
9:50 PM79 °FClear.12 mph79%29.74 "Hg10 mi
9:20 PM79 °FClear.13 mph79%29.74 "Hg10 mi
8:50 PM79 °FClear.14 mph79%29.74 "Hg10 mi
8:20 PM81 °FSunny.16 mph79%29.74 "Hg10 mi
7:50 PM81 °FSunny.18 mph79%29.74 "Hg10 mi
7:20 PM82 °FSunny.18 mph70%29.74 "Hg10 mi
6:50 PM82 °FSunny.17 mph70%29.74 "Hg10 mi
6:20 PM82 °FSunny.16 mph74%29.74 "Hg10 mi
5:50 PM82 °FPassing clouds.18 mph74%29.74 "HgN/A
5:20 PM84 °FPassing clouds.18 mph70%29.74 "HgN/A
4:50 PM84 °FPassing clouds.16 mph70%29.74 "HgN/A
4:20 PM84 °FPassing clouds.16 mph70%29.74 "HgN/A
Weather by CustomWeather, © 2016

See weather overviewHow to use our weather pages